| time (UTC) | temp F | wind direction | speed MPH | gust MPH | rain 1hr in | rain 24hr in | rain mn in | humidity % | barometer mb |
| 20260906234544 | 69 | 41 | 1.0 | 4.0 | 0.00 | 0.01 | 0.01 | 77 | 1018.7 |
| 20260906233042 | 70 | 36 | 0.0 | 3.0 | 0.00 | 0.01 | 0.01 | 75 | 1018.9 |
| 20260906231542 | 71 | 36 | 1.0 | 3.0 | 0.00 | 0.01 | 0.01 | 72 | 1019.0 |
| 20260906230045 | 72 | 5 | 1.0 | 5.0 | 0.00 | 0.01 | 0.01 | 72 | 1019.0 |
| 20260906224544 | 73 | 59 | 3.0 | 8.0 | 0.00 | 0.01 | 0.01 | 69 | 1019.1 |
| 20260906223039 | 74 | 355 | 3.0 | 11.0 | 0.00 | 0.01 | 0.01 | 67 | 1018.9 |
| 20260906221539 | 74 | 13 | 4.0 | 10.0 | 0.00 | 0.01 | 0.01 | 66 | 1019.0 |
| 20260906220040 | 75 | 17 | 6.0 | 11.0 | 0.00 | 0.01 | 0.01 | 65 | 1018.8 |
| 20260906214545 | 75 | 28 | 5.0 | 11.0 | 0.00 | 0.01 | 0.01 | 68 | 1018.8 |
| 20260906213036 | 75 | 22 | 5.0 | 10.0 | 0.00 | 0.01 | 0.01 | 67 | 1018.9 |
| 20260906211536 | 75 | 355 | 7.0 | 12.0 | 0.00 | 0.01 | 0.01 | 67 | 1018.9 |
| 20260906210038 | 74 | 355 | 3.0 | 9.0 | 0.00 | 0.01 | 0.01 | 67 | 1018.9 |
| 20260906204537 | 75 | 63 | 4.0 | 11.0 | 0.00 | 0.01 | 0.01 | 65 | 1018.8 |
| 20260906203035 | 75 | 5 | 4.0 | 9.0 | 0.00 | 0.01 | 0.01 | 66 | 1018.9 |
| 20260906201545 | 75 | 338 | 8.0 | 15.0 | 0.00 | 0.01 | 0.01 | 64 | 1018.7 |
| 20260906200033 | 75 | 342 | 7.0 | 14.0 | 0.00 | 0.01 | 0.01 | 61 | 1018.8 |
| 20260906194539 | 75 | 355 | 6.0 | 13.0 | 0.00 | 0.01 | 0.01 | 62 | 1019.0 |
| 20260906193031 | 75 | 346 | 6.0 | 16.0 | 0.00 | 0.01 | 0.01 | 61 | 1019.1 |
| 20260906191631 | 75 | 348 | 8.0 | 15.0 | 0.00 | 0.01 | 0.01 | 61 | 1019.3 |
| 20260906190030 | 74 | 355 | 7.0 | 13.0 | 0.00 | 0.01 | 0.01 | 66 | 1019.3 |
| 20260906184536 | 74 | 344 | 8.0 | 14.0 | 0.00 | 0.01 | 0.01 | 66 | 1019.1 |
| 20260906183033 | 73 | 355 | 8.0 | 13.0 | 0.00 | 0.01 | 0.01 | 67 | 1019.1 |
| 20260906181549 | 75 | 323 | 8.0 | 14.0 | 0.00 | 0.01 | 0.01 | 66 | 1019.1 |
| 20260906180027 | 74 | 47 | 3.0 | 9.0 | 0.00 | 0.01 | 0.01 | 72 | 1019.2 |
| 20260906174524 | 73 | 341 | 8.0 | 14.0 | 0.00 | 0.01 | 0.01 | 73 | 1019.3 |
| 20260906173027 | 73 | 5 | 4.0 | 12.0 | 0.00 | 0.01 | 0.01 | 71 | 1019.5 |
| 20260906171529 | 74 | 22 | 4.0 | 11.0 | 0.00 | 0.01 | 0.01 | 70 | 1019.6 |
| 20260906170024 | 72 | 59 | 3.0 | 10.0 | 0.00 | 0.01 | 0.01 | 67 | 1019.7 |
| 20260906164520 | 73 | 43 | 2.0 | 8.0 | 0.00 | 0.01 | 0.01 | 67 | 1019.8 |
| 20260906163025 | 74 | 16 | 5.0 | 11.0 | 0.00 | 0.01 | 0.01 | 66 | 1019.8 |
| 20260906161520 | 74 | 5 | 4.0 | 11.0 | 0.00 | 0.01 | 0.01 | 67 | 1019.9 |
| 20260906160014 | 74 | 64 | 3.0 | 9.0 | 0.00 | 0.01 | 0.01 | 71 | 1019.8 |
| 20260906154511 | 72 | 13 | 3.0 | 9.0 | 0.00 | 0.01 | 0.01 | 74 | 1019.8 |
| 20260906153010 | 72 | 53 | 2.0 | 9.0 | 0.00 | 0.01 | 0.01 | 74 | 1019.7 |
| 20260906151510 | 72 | 60 | 2.0 | 9.0 | 0.00 | 0.01 | 0.01 | 76 | 1019.7 |
| 20260906150004 | 71 | 26 | 3.0 | 10.0 | 0.00 | 0.01 | 0.01 | 78 | 1019.5 |
| 20260906144559 | 70 | 38 | 3.0 | 9.0 | 0.00 | 0.01 | 0.01 | 84 | 1019.5 |
| 20260906143057 | 69 | 57 | 3.0 | 8.0 | 0.00 | 0.01 | 0.01 | 88 | 1019.5 |
| 20260906141553 | 68 | 45 | 3.0 | 7.0 | 0.00 | 0.01 | 0.01 | 92 | 1019.4 |
| 20260906140101 | 67 | 57 | 3.0 | 6.0 | 0.00 | 0.01 | 0.01 | 94 | 1019.4 |
| 20260906134558 | 66 | 46 | 2.0 | 6.0 | 0.00 | 0.01 | 0.01 | 94 | 1019.4 |
| 20260906133043 | 65 | 65 | 3.0 | 5.0 | 0.00 | 0.01 | 0.01 | 95 | 1019.5 |
| 20260906131539 | 63 | 37 | 1.0 | 3.0 | 0.00 | 0.01 | 0.01 | 95 | 1019.5 |
| 20260906130033 | 62 | 37 | 1.0 | 3.0 | 0.00 | 0.01 | 0.01 | 95 | 1019.4 |
| 20260906124529 | 60 | 38 | 0.0 | 2.0 | 0.00 | 0.01 | 0.01 | 95 | 1019.4 |
| 20260906123032 | 58 | 38 | 1.0 | 3.0 | 0.01 | 0.01 | 0.01 | 95 | 1019.4 |
| 20260906121527 | 57 | 38 | 1.0 | 2.0 | 0.01 | 0.01 | 0.01 | 94 | 1019.3 |
| 20260906120020 | 56 | 38 | 1.0 | 3.0 | 0.01 | 0.01 | 0.01 | 94 | 1019.1 |
| 20260906114534 | 54 | 38 | 0.0 | 1.0 | 0.01 | 0.01 | 0.01 | 94 | 1018.9 |
| 20260906113017 | 54 | 38 | 0.0 | 0.0 | 0.00 | 0.00 | 0.00 | 94 | 1018.7 |
| 20260906111523 | 54 | 38 | 0.0 | 0.0 | 0.00 | 0.00 | 0.00 | 94 | 1018.4 |
| 20260906110014 | 54 | 38 | 0.0 | 0.0 | 0.00 | 0.00 | 0.00 | 94 | 1018.3 |
| 20260906104514 | 54 | 38 | 0.0 | 0.0 | 0.00 | 0.00 | 0.00 | 94 | 1018.3 |
| 20260906103012 | 54 | 38 | 0.0 | 0.0 | 0.00 | 0.00 | 0.00 | 94 | 1018.3 |
| 20260906101511 | 54 | 38 | 0.0 | 0.0 | 0.00 | 0.00 | 0.00 | 94 | 1018.1 |
| 20260906100009 | 53 | 38 | 0.0 | 0.0 | 0.00 | 0.00 | 0.00 | 93 | 1018.0 |
| 20260906094507 | 54 | 38 | 0.0 | 0.0 | 0.00 | 0.00 | 0.00 | 93 | 1018.1 |
| 20260906093005 | 54 | 38 | 0.0 | 0.0 | 0.00 | 0.00 | 0.00 | 93 | 1018.0 |
| 20260906091511 | 54 | 38 | 0.0 | 0.0 | 0.00 | 0.00 | 0.00 | 93 | 1017.9 |
| 20260906090001 | 55 | 38 | 0.0 | 1.0 | 0.00 | 0.00 | 0.00 | 93 | 1017.7 |
| 20260906084700 | 56 | 38 | 0.0 | 1.0 | 0.00 | 0.00 | 0.00 | 93 | 1017.7 |
| 20260906083059 | 56 | 38 | 0.0 | 2.0 | 0.00 | 0.00 | 0.00 | 93 | 1017.6 |
| 20260906081600 | 56 | 38 | 0.0 | 1.0 | 0.00 | 0.00 | 0.00 | 93 | 1017.5 |
| 20260906080106 | 56 | 38 | 0.0 | 0.0 | 0.00 | 0.00 | 0.00 | 93 | 1017.4 |
| 20260906074556 | 56 | 38 | 0.0 | 0.0 | 0.00 | 0.00 | 0.00 | 93 | 1017.6 |
| 20260906073055 | 56 | 38 | 0.0 | 0.0 | 0.00 | 0.00 | 0.00 | 93 | 1017.5 |
| 20260906071601 | 57 | 38 | 0.0 | 1.0 | 0.00 | 0.00 | 0.00 | 93 | 1017.4 |
| 20260906070053 | 56 | 38 | 0.0 | 0.0 | 0.00 | 0.00 | 0.00 | 93 | 1017.3 |
| 20260906064553 | 57 | 38 | 0.0 | 0.0 | 0.00 | 0.00 | 0.00 | 92 | 1017.2 |
| 20260906063052 | 57 | 38 | 0.0 | 1.0 | 0.00 | 0.00 | 0.00 | 93 | 1017.4 |
| 20260906061552 | 57 | 38 | 0.0 | 2.0 | 0.00 | 0.00 | 0.00 | 93 | 1017.3 |
| 20260906060120 | 56 | 38 | 0.0 | 1.0 | 0.00 | 0.00 | 0.00 | 92 | 1017.3 |
| 20260906054548 | 56 | 38 | 0.0 | 0.0 | 0.00 | 0.00 | 0.00 | 92 | 1017.3 |
| 20260906053048 | 55 | 38 | 0.0 | 0.0 | 0.00 | 0.00 | 0.00 | 91 | 1017.0 |
| 20260906051546 | 56 | 38 | 0.0 | 0.0 | 0.00 | 0.00 | 0.00 | 91 | 1017.3 |
| 20260906050043 | 56 | 38 | 0.0 | 0.0 | 0.00 | 0.00 | 0.00 | 91 | 1017.3 |
| 20260906044540 | 57 | 38 | 0.0 | 0.0 | 0.00 | 0.00 | 0.00 | 91 | 1017.1 |
| 20260906043040 | 57 | 38 | 0.0 | 1.0 | 0.00 | 0.00 | 0.00 | 92 | 1016.9 |
| 20260906041537 | 57 | 38 | 0.0 | 1.0 | 0.00 | 0.00 | 0.00 | 91 | 1016.9 |
| 20260906040038 | 57 | 38 | 0.0 | 0.0 | 0.00 | 0.00 | 0.00 | 90 | 1016.9 |
| 20260906034535 | 57 | 38 | 0.0 | 0.0 | 0.00 | 0.00 | 0.00 | 90 | 1016.7 |
| 20260906033034 | 58 | 38 | 0.0 | 1.0 | 0.00 | 0.00 | 0.00 | 89 | 1016.7 |
| 20260906031558 | 58 | 38 | 0.0 | 0.0 | 0.00 | 0.00 | 0.00 | 89 | 1016.6 |
| 20260906030029 | 58 | 38 | 0.0 | 0.0 | 0.00 | 0.00 | 0.00 | 88 | 1016.5 |
| 20260906024528 | 58 | 38 | 0.0 | 0.0 | 0.00 | 0.00 | 0.00 | 87 | 1016.5 |
| 20260906023024 | 59 | 38 | 0.0 | 1.0 | 0.00 | 0.00 | 0.00 | 87 | 1016.7 |
| 20260906021523 | 59 | 38 | 0.0 | 1.0 | 0.00 | 0.00 | 0.00 | 86 | 1016.6 |
| 20260906020021 | 60 | 38 | 0.0 | 1.0 | 0.00 | 0.00 | 0.00 | 86 | 1016.4 |
| 20260906014525 | 60 | 38 | 0.0 | 2.0 | 0.00 | 0.00 | 0.00 | 86 | 1016.4 |
| 20260906013017 | 61 | 38 | 0.0 | 1.0 | 0.00 | 0.00 | 0.00 | 85 | 1016.5 |
| 20260906011514 | 61 | 38 | 0.0 | 0.0 | 0.00 | 0.00 | 0.00 | 84 | 1016.3 |
| 20260906010012 | 62 | 38 | 0.0 | 1.0 | 0.00 | 0.00 | 0.00 | 82 | 1016.1 |
| 20260906004507 | 63 | 38 | 0.0 | 2.0 | 0.00 | 0.00 | 0.00 | 81 | 1016.0 |
| 20260906003005 | 64 | 38 | 1.0 | 3.0 | 0.00 | 0.00 | 0.00 | 78 | 1016.0 |
| 20260906001503 | 66 | 38 | 0.0 | 2.0 | 0.00 | 0.00 | 0.00 | 75 | 1015.8 |
| 20260906000003 | 68 | 38 | 0.0 | 3.0 | 0.00 | 0.00 | 0.00 | 71 | 1015.7 |